• In Deutschland
  • Länderverzeichnis
  • Für 7 Tage
  • Wassertemperatur
  • Satellitenkarten
  • Wetterkarte
  • Widgets
  • user-avatar
    Anmelden

    Stündliche Wetter Kos

    Heute, 14 August, Dienstag

    Zeit Temperatur Niederschläge Wind Luftdruck Luftfeuchtigkeit
    00:00 +26°C° 0 mm 7 m/S 757 mmHg 47%
    01:00 +24°C° 0 mm 7 m/S 757 mmHg 47%
    02:00 +24°C° 0 mm 6 m/S 757 mmHg 46%
    03:00 +23°C° 0 mm 6 m/S 757 mmHg 49%
    04:00 +23°C° 0 mm 6 m/S 757 mmHg 51%
    05:00 +22°C° 0 mm 6 m/S 757 mmHg 54%
    06:00 +24°C° 0 mm 6 m/S 757 mmHg 50%
    07:00 +27°C° 0 mm 6 m/S 757 mmHg 46%
    08:00 +30°C° 0 mm 6 m/S 757 mmHg 44%
    09:00 +34°C° 0 mm 6 m/S 757 mmHg 38%
    10:00 +36°C° 0 mm 5 m/S 758 mmHg 32%
    11:00 +40°C° 0 mm 5 m/S 758 mmHg 26%
    12:00 +40°C° 0 mm 6 m/S 758 mmHg 25%
    13:00 +41°C° 0 mm 6 m/S 757 mmHg 23%
    14:00 +42°C° 0 mm 6 m/S 757 mmHg 22%
    15:00 +40°C° 0 mm 7 m/S 757 mmHg 26%
    16:00 +39°C° 0 mm 7 m/S 757 mmHg 30%
    17:00 +38°C° 0 mm 7 m/S 757 mmHg 34%
    18:00 +34°C° 0 mm 7 m/S 757 mmHg 45%
    19:00 +32°C° 0 mm 7 m/S 757 mmHg 55%
    20:00 +28°C° 0 mm 6 m/S 757 mmHg 66%
    21:00 +28°C° 0 mm 6 m/S 757 mmHg 67%
    22:00 +27°C° 0 mm 6 m/S 757 mmHg 69%
    23:00 +27°C° 0 mm 6 m/S 757 mmHg 70%

    Morgen, 15 August, Mittwoch

    Zeit Temperatur Niederschläge Wind Luftdruck Luftfeuchtigkeit
    00:00 +26°C° 0 mm 6 m/S 757 mmHg 66%
    01:00 +26°C° 0 mm 6 m/S 757 mmHg 62%
    02:00 +26°C° 0 mm 6 m/S 757 mmHg 59%
    03:00 +24°C° 0 mm 6 m/S 756 mmHg 57%
    04:00 +24°C° 0 mm 6 m/S 756 mmHg 55%
    05:00 +24°C° 0 mm 6 m/S 756 mmHg 54%
    06:00 +27°C° 0 mm 6 m/S 756 mmHg 49%
    07:00 +29°C° 0 mm 6 m/S 756 mmHg 44%
    08:00 +32°C° 0 mm 6 m/S 756 mmHg 39%
    09:00 +34°C° 0 mm 6 m/S 757 mmHg 34%
    10:00 +38°C° 0 mm 6 m/S 757 mmHg 29%
    11:00 +40°C° 0 mm 6 m/S 757 mmHg 25%
    12:00 +40°C° 0 mm 6 m/S 757 mmHg 24%
    13:00 +41°C° 0 mm 6 m/S 757 mmHg 24%
    14:00 +41°C° 0 mm 7 m/S 756 mmHg 23%
    15:00 +40°C° 0 mm 7 m/S 756 mmHg 27%
    16:00 +39°C° 0 mm 7 m/S 756 mmHg 30%
    17:00 +38°C° 0 mm 7 m/S 756 mmHg 34%
    18:00 +34°C° 0 mm 7 m/S 756 mmHg 45%
    19:00 +30°C° 0 mm 7 m/S 757 mmHg 55%
    20:00 +28°C° 0 mm 7 m/S 757 mmHg 66%
    21:00 +27°C° 0 mm 7 m/S 757 mmHg 69%
    22:00 +27°C° 0 mm 7 m/S 757 mmHg 72%
    23:00 +26°C° 0 mm 6 m/S 757 mmHg 75%

    übermorgen, 16 August, Donnerstag

    Zeit Temperatur Niederschläge Wind Luftdruck Luftfeuchtigkeit
    00:00 +26°C° 0 mm 7 m/S 757 mmHg 76%
    01:00 +26°C° 0 mm 7 m/S 757 mmHg 76%
    02:00 +24°C° 0 mm 7 m/S 757 mmHg 77%
    03:00 +24°C° 0 mm 6 m/S 757 mmHg 76%
    04:00 +24°C° 0 mm 6 m/S 757 mmHg 74%
    05:00 +24°C° 0 mm 6 m/S 756 mmHg 72%
    06:00 +27°C° 0 mm 6 m/S 757 mmHg 63%
    07:00 +29°C° 0 mm 5 m/S 757 mmHg 54%
    08:00 +32°C° 0 mm 5 m/S 757 mmHg 45%
    09:00 +34°C° 0 mm 5 m/S 757 mmHg 40%
    10:00 +36°C° 0 mm 5 m/S 758 mmHg 35%
    11:00 +39°C° 0 mm 5 m/S 758 mmHg 30%
    12:00 +39°C° 0 mm 6 m/S 758 mmHg 30%
    13:00 +40°C° 0 mm 6 m/S 758 mmHg 31%
    14:00 +40°C° 0 mm 6 m/S 757 mmHg 31%
    15:00 +39°C° 0 mm 6 m/S 757 mmHg 36%
    16:00 +36°C° 0 mm 7 m/S 757 mmHg 40%
    17:00 +35°C° 0 mm 7 m/S 757 mmHg 45%
    18:00 +33°C° 0 mm 6 m/S 757 mmHg 56%
    19:00 +29°C° 0 mm 6 m/S 758 mmHg 67%
    20:00 +27°C° 0 mm 6 m/S 758 mmHg 78%
    21:00 +26°C° 0 mm 6 m/S 758 mmHg 80%
    22:00 +26°C° 0 mm 6 m/S 758 mmHg 82%
    23:00 +24°C° 0 mm 6 m/S 758 mmHg 84%

    17 August, Freitag

    Zeit Temperatur Niederschläge Wind Luftdruck Luftfeuchtigkeit
    00:00 +24°C° 0 mm 6 m/S 758 mmHg 84%
    01:00 +24°C° 0 mm 6 m/S 758 mmHg 83%
    02:00 +24°C° 0 mm 6 m/S 758 mmHg 82%
    03:00 +24°C° 0 mm 6 m/S 758 mmHg 81%
    04:00 +24°C° 0 mm 6 m/S 758 mmHg 80%
    05:00 +24°C° 0 mm 6 m/S 758 mmHg 79%
    06:00 +27°C° 0 mm 6 m/S 758 mmHg 70%
    07:00 +28°C° 0 mm 6 m/S 758 mmHg 62%
    08:00 +30°C° 0 mm 6 m/S 758 mmHg 54%
    09:00 +33°C° 0 mm 6 m/S 758 mmHg 45%
    10:00 +36°C° 0 mm 6 m/S 758 mmHg 37%
    11:00 +39°C° 0 mm 6 m/S 758 mmHg 29%
    12:00 +40°C° 0 mm 6 m/S 758 mmHg 27%
    13:00 +40°C° 0 mm 7 m/S 758 mmHg 26%
    14:00 +41°C° 0 mm 7 m/S 758 mmHg 25%
    15:00 +40°C° 0 mm 8 m/S 758 mmHg 28%
    16:00 +39°C° 0 mm 8 m/S 758 mmHg 30%
    17:00 +38°C° 0 mm 8 m/S 758 mmHg 33%
    18:00 +35°C° 0 mm 8 m/S 758 mmHg 41%
    19:00 +32°C° 0 mm 8 m/S 758 mmHg 49%
    20:00 +29°C° 0 mm 8 m/S 758 mmHg 58%
    21:00 +29°C° 0 mm 8 m/S 758 mmHg 59%
    22:00 +28°C° 0 mm 7 m/S 758 mmHg 59%
    23:00 +28°C° 0 mm 7 m/S 758 mmHg 60%

    18 August, Samstag

    Zeit Temperatur Niederschläge Wind Luftdruck Luftfeuchtigkeit
    00:00 +27°C° 0 mm 7 m/S 758 mmHg 57%
    01:00 +27°C° 0 mm 7 m/S 757 mmHg 54%
    02:00 +27°C° 0 mm 7 m/S 757 mmHg 52%
    03:00 +26°C° 0 mm 7 m/S 757 mmHg 52%
    04:00 +26°C° 0 mm 7 m/S 757 mmHg 53%
    05:00 +24°C° 0 mm 7 m/S 757 mmHg 54%
    06:00 +27°C° 0 mm 7 m/S 757 mmHg 50%
    07:00 +29°C° 0 mm 7 m/S 757 mmHg 45%
    08:00 +32°C° 0 mm 7 m/S 757 mmHg 40%
    09:00 +34°C° 0 mm 7 m/S 757 mmHg 35%
    10:00 +38°C° 0 mm 7 m/S 757 mmHg 30%
    11:00 +40°C° 0 mm 7 m/S 757 mmHg 25%
    12:00 +41°C° 0 mm 8 m/S 757 mmHg 23%
    13:00 +43°C° 0 mm 9 m/S 757 mmHg 20%
    14:00 +44°C° 0 mm 9 m/S 756 mmHg 18%
    15:00 +44°C° 0 mm 10 m/S 756 mmHg 19%
    16:00 +43°C° 0 mm 10 m/S 756 mmHg 19%
    17:00 +43°C° 0 mm 11 m/S 756 mmHg 19%
    18:00 +39°C° 0 mm 11 m/S 756 mmHg 24%
    19:00 +36°C° 0 mm 11 m/S 756 mmHg 29%
    20:00 +33°C° 0 mm 11 m/S 756 mmHg 33%
    21:00 +32°C° 0 mm 11 m/S 756 mmHg 37%
    22:00 +31°C° 0 mm 10 m/S 756 mmHg 42%
    23:00 +28°C° 0 mm 10 m/S 756 mmHg 46%

    19 August, Sonntag

    Zeit Temperatur Niederschläge Wind Luftdruck Luftfeuchtigkeit
    00:00 +28°C° 0 mm 9 m/S 756 mmHg 49%
    01:00 +27°C° 0 mm 9 m/S 755 mmHg 53%
    02:00 +26°C° 0 mm 9 m/S 755 mmHg 57%
    03:00 +26°C° 0 mm 9 m/S 755 mmHg 59%
    04:00 +24°C° 0 mm 9 m/S 755 mmHg 60%
    05:00 +24°C° 0 mm 8 m/S 755 mmHg 62%
    06:00 +26°C° 0 mm 8 m/S 755 mmHg 57%
    07:00 +28°C° 0 mm 8 m/S 755 mmHg 52%
    08:00 +31°C° 0 mm 8 m/S 755 mmHg 47%
    09:00 +34°C° 0 mm 8 m/S 755 mmHg 39%
    10:00 +36°C° 0 mm 7 m/S 755 mmHg 31%
    11:00 +40°C° 0 mm 7 m/S 755 mmHg 23%
    12:00 +41°C° 0 mm 8 m/S 755 mmHg 21%
    13:00 +43°C° 0 mm 8 m/S 755 mmHg 20%
    14:00 +44°C° 0 mm 8 m/S 754 mmHg 18%
    15:00 +44°C° 0 mm 9 m/S 754 mmHg 18%
    16:00 +44°C° 0 mm 9 m/S 754 mmHg 18%
    17:00 +44°C° 0 mm 10 m/S 754 mmHg 18%
    18:00 +40°C° 0 mm 9 m/S 754 mmHg 22%
    19:00 +38°C° 0 mm 9 m/S 754 mmHg 25%
    20:00 +34°C° 0 mm 8 m/S 754 mmHg 29%
    21:00 +33°C° 0 mm 7 m/S 754 mmHg 32%
    22:00 +30°C° 0 mm 7 m/S 754 mmHg 35%
    23:00 +29°C° 0 mm 6 m/S 754 mmHg 39%
    Mehr zeigen